Location: Waldport
(44.4270°N, 124.0680°W)
Time: 16:50:04
(UTC-07:00)

Amateur Radio Satellites - All Passes

Search period start: 31 August 2015 16:20
Search period end: 01 September 2015 16:20
Location: Waldport, 44.4270°N, 124.0680°W

Satellite Date Start Highest point End Downlink Frequencies (MHz)
Time Altitude Azimuth
STARS 31 Aug 16:22:38 16:26:50 40° 98° (E) 16:31:01 437.465
ITUPSAT 1 31 Aug 16:29:55 16:33:40 23° 295° (WNW) 16:37:18 437.325
ISS 31 Aug 16:31:35 16:34:27 28° 221° (SW) 16:37:17 145.825
KKS-1 31 Aug 16:40:26 16:44:57 81° 284° (WNW) 16:49:26 437.445
BEESAT 3 31 Aug 16:49:32 16:53:16 33° 314° (NW) 16:56:59 437.485
MOZHAYETS 4 31 Aug 16:51:28 16:54:55 21° 91° (E) 16:58:27
HORYU 2 31 Aug 16:51:42 16:56:02 46° 261° (W) 17:00:24 437.375
Cosmos 2499 31 Aug 16:57:56 17:06:23 55° 269° (W) 17:14:13 435.465 / 435.565
BEESAT 2 31 Aug 17:01:13 17:04:58 33° 314° (NW) 17:08:44 435.950
BEESAT 31 Aug 17:05:01 17:06:44 12° 301° (WNW) 17:08:13 436.000
JAS-2 31 Aug 17:18:34 17:23:52 19° 277° (W) 17:28:52 435.910
Cubesat XI-IV 31 Aug 17:27:33 17:31:26 22° 62° (ENE) 17:35:28 437.490
RS-15 31 Aug 17:29:31 17:40:30 90° 124° (ESE) 17:52:00 29.354- 29.394
AIST 2 31 Aug 17:35:16 17:39:30 66° 307° (NW) 17:43:45 435.215
STARS 31 Aug 17:59:34 18:03:04 22° 295° (WNW) 18:06:27 437.465
AO-7 31 Aug 18:03:50 18:10:02 21° 271° (W) 18:15:51 29.400- 29.500
CUTE-I 31 Aug 18:11:09 18:16:13 48° 70° (ENE) 18:21:20 437.470
Cosmos 2491 31 Aug 18:17:26 18:17:35 10° 46° (NE) 18:18:24 435.465 / 435.565
KKS-1 31 Aug 18:20:33 18:20:53 10° 301° (WNW) 18:20:59 437.445
MOZHAYETS 4 31 Aug 18:28:03 18:32:21 41° 289° (WNW) 18:36:36
CUBESAT XI-V 31 Aug 18:44:17 18:48:17 29° 94° (E) 18:52:21 437.345
BRITE-PL 31 Aug 19:00:09 19:03:30 22° 64° (ENE) 19:07:08 437.365/2234.400
Cubesat XI-IV 31 Aug 19:05:56 19:11:10 58° 259° (W) 19:16:26 437.490
AIST 2 31 Aug 19:16:56 19:18:55 13° 328° (NNW) 19:20:47 435.215
AIST 1 31 Aug 19:27:14 19:31:23 45° 77° (ENE) 19:35:34
GOMX 1 31 Aug 19:29:19 19:33:03 26° 65° (ENE) 19:37:06 467.674
HO-68 31 Aug 19:29:40 19:35:25 28° 58° (ENE) 19:41:20 435.675
DOVE 4 31 Aug 19:43:39 19:47:15 23° 64° (ENE) 19:51:08 437.250
RS-15 31 Aug 19:44:29 19:54:36 37° 333° (NNW) 20:05:02 29.354- 29.394
O/OREOS (USA 219) 31 Aug 19:46:23 19:50:54 74° 112° (ESE) 19:55:29 437.305
CUTE-I 31 Aug 19:52:19 19:56:35 24° 268° (W) 20:00:46 437.470
COMPASS 1 31 Aug 19:57:35 19:59:19 13° 63° (ENE) 20:01:14 437.405
AAUSAT CUBESAT 2 31 Aug 20:07:35 20:09:34 14° 63° (ENE) 20:11:45 437.432
STRAND 1 31 Aug 20:07:59 20:12:58 50° 99° (E) 20:17:56 437.568
Cosmos 2491 31 Aug 20:09:00 20:17:24 49° 72° (ENE) 20:25:52 435.465 / 435.565
YUBILEINY 31 Aug 20:20:57 20:27:06 23° 80° (E) 20:33:38 435.215
CUBESAT XI-V 31 Aug 20:21:36 20:25:45 32° 291° (WNW) 20:29:50 437.345
CUBEBUG 2 31 Aug 20:22:53 20:24:41 12° 60° (ENE) 20:26:43 437.445
CINEMA 3 31 Aug 20:29:22 20:33:23 29° 67° (ENE) 20:37:37 145.822/145.860
UWE-3 31 Aug 20:30:31 20:31:51 11° 60° (ENE) 20:33:25 435.000/436.395/437.385
CUTE 1.7 + AOD 2 31 Aug 20:32:52 20:36:57 44° 72° (ENE) 20:41:02 437.475
BRITE-PL 31 Aug 20:37:36 20:41:45 41° 264° (W) 20:46:13 437.365/2234.400
CANX-2 31 Aug 20:46:38 20:50:55 70° 75° (ENE) 20:55:11 2200.000
PRISM 31 Aug 20:49:35 20:53:42 82° 285° (WNW) 20:57:49 437.425
AIST 1 31 Aug 21:05:54 21:08:43 17° 273° (W) 21:11:23
GOMX 1 31 Aug 21:06:49 21:11:02 37° 265° (W) 21:15:31 467.674
SEEDS 31 Aug 21:08:13 21:12:29 86° 78° (ENE) 21:16:45 437.485
Oscar 11 31 Aug 21:14:07 21:17:55 31° 69° (ENE) 21:21:47 145.826/435.025
HO-68 31 Aug 21:15:33 21:22:40 67° 257° (WSW) 21:29:51 435.675
DOVE 4 31 Aug 21:20:17 21:24:42 44° 263° (W) 21:29:26 437.250
O/OREOS (USA 219) 31 Aug 21:28:08 21:30:56 15° 312° (NW) 21:33:38 437.305
COMPASS 1 31 Aug 21:30:16 21:34:29 70° 259° (WSW) 21:38:41 437.405
AAUSAT CUBESAT 2 31 Aug 21:40:33 21:44:43 63° 259° (W) 21:48:53 437.432
STRAND 1 31 Aug 21:47:53 21:51:52 23° 297° (WNW) 21:55:45 437.568
CUBEBUG 2 31 Aug 21:56:02 22:00:41 89° 260° (W) 22:05:28 437.445
ZACube-1 31 Aug 21:56:22 22:00:49 57° 73° (ENE) 22:05:21 437.345
VELOX 1 31 Aug 21:59:47 22:00:31 10° 59° (ENE) 22:01:29 145.980
FUNcube-1 31 Aug 22:01:43 22:06:12 62° 74° (ENE) 22:10:46 145.935
RS-15 31 Aug 22:02:03 22:11:23 27° 6° (N) 22:21:07 29.354- 29.394
UWE-3 31 Aug 22:03:03 22:07:40 86° 76° (ENE) 22:12:24 435.000/436.395/437.385
DELFI C3 31 Aug 22:04:42 22:08:44 69° 75° (ENE) 22:12:47 145.870
CINEMA 3 31 Aug 22:06:08 22:10:28 35° 265° (W) 22:14:56 145.822/145.860
Cosmos 2491 31 Aug 22:06:12 22:14:11 40° 273° (W) 22:22:03 435.465 / 435.565
CUTE 1.7 + AOD 2 31 Aug 22:10:06 22:13:06 18° 269° (W) 22:15:59 437.475
YUBILEINY 31 Aug 22:14:12 22:23:01 81° 280° (W) 22:31:55 435.215
CANX-2 31 Aug 22:25:50 22:27:23 11° 273° (W) 22:28:42 2200.000
HUMSAT D 31 Aug 22:41:23 22:45:40 68° 75° (ENE) 22:50:00 437.325/437.525
DX 1 31 Aug 22:41:55 22:45:59 41° 70° (ENE) 22:50:06 434.975-435.025
50 SAT 31 Aug 22:43:51 22:47:18 30° 70° (ENE) 22:50:49 437.505
Oscar 11 31 Aug 22:50:25 22:54:07 26° 266° (W) 22:57:46 145.826/435.025
ESTCUBE 1 31 Aug 22:51:34 22:55:15 26° 67° (ENE) 22:59:00 437.505/2401.250
UKube-1 31 Aug 22:54:21 22:58:31 50° 72° (ENE) 23:02:43 .
Cosmos 2504 31 Aug 22:56:03 23:02:45 30° 83° (E) 23:09:56 435.465 / 435.565
AISAT 31 Aug 23:04:01 23:08:13 46° 72° (ENE) 23:12:30 437.250
CUBEBUG 1 31 Aug 23:05:02 23:08:43 28° 68° (ENE) 23:12:27 437.445
HO-68 31 Aug 23:09:42 23:11:59 11° 278° (W) 23:13:41 435.675
UNISAT 6 31 Aug 23:14:53 23:18:55 30° 95° (E) 23:22:54 437.425
QB50P1 31 Aug 23:23:01 23:24:58 13° 88° (E) 23:27:06 145.935-145.965
BEESAT 3 31 Aug 23:28:22 23:32:00 31° 46° (NE) 23:35:36 437.485
VELOX 1 31 Aug 23:32:00 23:36:24 87° 76° (ENE) 23:40:51 145.980
ZACube-1 31 Aug 23:34:41 23:37:35 16° 272° (W) 23:40:19 437.345
CUSAT 1 31 Aug 23:35:49 23:37:57 14° 80° (E) 23:40:34 437.405
FUNcube-1 31 Aug 23:40:24 23:43:00 14° 272° (W) 23:45:26 145.935
BEESAT 2 31 Aug 23:40:32 23:44:12 31° 46° (NE) 23:47:50 435.950
TIGRISAT 31 Aug 23:43:07 23:47:39 57° 100° (E) 23:52:04 435.000
DELFI C3 31 Aug 23:43:31 23:44:20 10° 273° (W) 23:44:55 145.870
UWE-3 31 Aug 23:43:49 23:44:56 11° 275° (W) 23:45:46 435.000/436.395/437.385
ANTELSAT 01 Sep 00:00:13 00:04:51 89° 102° (ESE) 00:09:19 437.575/2403.000
TISAT 1 01 Sep 00:04:24 00:07:38 22° 66° (ENE) 00:10:59 437.305
DANDE 01 Sep 00:04:30 00:06:27 14° 81° (E) 00:08:52 436.750
YUBILEINY 01 Sep 00:15:31 00:21:35 19° 304° (NW) 00:27:17 435.215
RS-15 01 Sep 00:16:24 00:27:35 48° 38° (NE) 00:39:17 29.354- 29.394
AIST 2 01 Sep 00:17:38 00:20:44 20° 39° (NE) 00:23:52 435.215
50 SAT 01 Sep 00:18:39 00:21:52 23° 267° (W) 00:25:00 437.505
DX 1 01 Sep 00:19:14 00:22:27 19° 268° (W) 00:25:34 434.975-435.025
HUMSAT D 01 Sep 00:20:06 00:21:56 12° 273° (W) 00:23:33 437.325/437.525
AUBIESAT-1 01 Sep 00:22:29 00:26:30 84° 106° (ESE) 00:30:09 437.475
POLYITAN 1 01 Sep 00:22:48 00:27:05 58° 101° (E) 00:31:19 437.675
POPSAT HIP 1 01 Sep 00:25:21 00:29:38 60° 101° (E) 00:33:52 437.405
DUCHIFAT 1 01 Sep 00:25:43 00:29:58 58° 100° (E) 00:34:11 145.980
ESTCUBE 1 01 Sep 00:27:55 00:32:01 33° 264° (W) 00:36:04 437.505/2401.250
M-CUBED/EXP-1 PRIME 01 Sep 00:27:57 00:32:00 71° 291° (WNW) 00:35:41 437.505
UKube-1 01 Sep 00:32:13 00:34:58 16° 270° (W) 00:37:35 .
BUGSAT 1 01 Sep 00:32:54 00:37:00 44° 99° (E) 00:41:05 437.445
SPROUT 01 Sep 00:35:24 00:39:42 79° 76° (ENE) 00:44:02 437.525
CUBEBUG 1 01 Sep 00:41:14 00:45:02 29° 265° (W) 00:48:47 437.445
AISAT 01 Sep 00:42:00 00:45:05 18° 269° (W) 00:48:05 437.250
QB50P2 01 Sep 00:42:20 00:46:40 85° 287° (WNW) 00:50:58 145.880/145.840
NANOSAT C BR1 01 Sep 00:43:15 00:47:34 88° 287° (WNW) 00:51:51 145.865
Cosmos 2504 01 Sep 00:46:17 00:54:24 64° 283° (WNW) 01:02:57 435.465 / 435.565
UNISAT 6 01 Sep 00:51:40 00:55:39 29° 292° (WNW) 00:59:30 437.425
SO-50 01 Sep 00:53:20 00:56:51 21° 112° (ESE) 01:00:36 436.795
QB50P1 01 Sep 00:57:02 01:01:18 61° 286° (WNW) 01:05:32 145.935-145.965
BEESAT 01 Sep 00:57:09 01:00:08 17° 62° (ENE) 01:03:16 436.000
BEESAT 3 01 Sep 01:06:21 01:09:52 29° 244° (WSW) 01:13:18 437.485
CUSAT 1 01 Sep 01:15:34 01:19:31 55° 286° (WNW) 01:24:50 437.405
BEESAT 2 01 Sep 01:18:38 01:22:11 29° 244° (WSW) 01:25:38 435.950
TIGRISAT 01 Sep 01:20:56 01:23:58 17° 297° (WNW) 01:26:48 435.000
SWISSCUBE 01 Sep 01:21:48 01:25:55 30° 67° (ENE) 01:30:06 437.505
Oscar 19 01 Sep 01:23:48 01:25:41 12° 86° (E) 01:27:51 437.125/150
ANTELSAT 01 Sep 01:39:17 01:40:57 12° 301° (WNW) 01:42:23 437.575/2403.000
TISAT 1 01 Sep 01:39:20 01:43:13 35° 263° (W) 01:47:08 437.305
DANDE 01 Sep 01:45:23 01:48:51 41° 289° (WNW) 01:53:24 436.750
AIST 2 01 Sep 01:55:32 01:59:40 59° 239° (WSW) 02:03:43 435.215
ITUPSAT 1 01 Sep 01:59:43 02:04:25 62° 73° (ENE) 02:09:10 437.325
AUBIESAT-1 01 Sep 01:59:43 02:00:32 10° 307° (NW) 02:01:09 437.475
PCSat 01 Sep 01:59:44 02:04:37 36° 112° (ESE) 02:09:35 145.827
POLYITAN 1 01 Sep 01:59:56 02:02:33 15° 297° (WNW) 02:05:01 437.675
POPSAT HIP 1 01 Sep 02:02:32 02:05:03 15° 297° (WNW) 02:07:25 437.405
DUCHIFAT 1 01 Sep 02:02:47 02:05:20 15° 297° (WNW) 02:07:44 145.980
KKS-1 01 Sep 02:06:10 02:08:17 14° 61° (ENE) 02:10:35 437.445
BUGSAT 1 01 Sep 02:09:06 02:12:10 19° 295° (WNW) 02:15:08 437.445
NANOSAT C BR1 01 Sep 02:22:23 02:22:45 10° 300° (WNW) 02:22:54 145.865
ITAMSAT 1 01 Sep 02:23:50 02:24:48 11° 85° (E) 02:26:07 435.822/435.867
RS-15 01 Sep 02:29:06 02:40:46 66° 243° (WSW) 02:52:45 29.354- 29.394
SO-50 01 Sep 02:32:18 02:37:03 56° 310° (NW) 02:41:56 436.795
BEESAT 01 Sep 02:32:49 02:37:33 62° 259° (WSW) 02:42:18 436.000
JAS-2 01 Sep 02:41:45 02:44:36 13° 79° (E) 02:47:43 435.910
Cosmos 2504 01 Sep 02:44:21 02:48:51 14° 308° (NW) 02:52:55 435.465 / 435.565
SWISSCUBE 01 Sep 02:59:27 03:03:44 32° 264° (W) 03:07:59 437.505
Oscar 19 01 Sep 03:00:37 03:05:51 87° 290° (WNW) 03:11:04 437.125/150
GONETS M04 01 Sep 03:01:56 03:10:12 53° 90° (E) 03:18:36
STARS 01 Sep 03:20:55 03:25:05 43° 70° (ENE) 03:29:19 437.465
ITUPSAT 1 01 Sep 03:39:53 03:42:48 15° 271° (W) 03:45:32 437.325
KKS-1 01 Sep 03:39:56 03:44:23 73° 258° (WSW) 03:48:53 437.445
PCSat 01 Sep 03:42:59 03:48:02 38° 311° (NW) 03:53:05 145.827
Gurwin Techsat 1B 01 Sep 03:43:32 03:48:53 75° 103° (ESE) 03:54:12 435.225
Cosmos 2499 01 Sep 03:43:49 03:50:28 27° 82° (E) 03:57:35 435.465 / 435.565
MOZHAYETS 4 01 Sep 03:55:00 03:58:44 26° 67° (ENE) 04:02:34
ITAMSAT 1 01 Sep 04:00:00 04:05:12 85° 102° (ESE) 04:10:25 435.822/435.867
AO-7 01 Sep 04:08:22 04:14:48 25° 91° (E) 04:21:29 29.400- 29.500
O/OREOS (USA 219) 01 Sep 04:16:02 04:19:42 23° 53° (NE) 04:23:25 437.305
SO-50 01 Sep 04:16:03 04:18:43 14° 332° (NNW) 04:21:18 436.795
JAS-2 01 Sep 04:24:04 04:31:14 79° 102° (ESE) 04:37:29 435.910
HORYU 2 01 Sep 04:41:21 04:45:14 29° 95° (E) 04:49:07 437.375
Oscar 19 01 Sep 04:41:56 04:44:31 14° 302° (WNW) 04:46:52 437.125/150
RS-15 01 Sep 04:44:53 04:51:19 15° 262° (W) 04:56:49 29.354- 29.394
VERMONT LUNAR 01 Sep 04:54:09 04:56:43 26° 165° (SSE) 04:59:17 437.305
STARS 01 Sep 04:58:30 05:01:46 19° 268° (W) 05:04:56 437.465
GONETS M04 01 Sep 04:59:27 05:07:25 37° 292° (WNW) 05:15:18
Gurwin Techsat 1B 01 Sep 05:24:53 05:28:19 17° 300° (WNW) 05:31:34 435.225
MOZHAYETS 4 01 Sep 05:31:33 05:35:49 36° 264° (W) 05:40:04
PCSat 01 Sep 05:32:11 05:33:09 10° 335° (NNW) 05:33:57 145.827
Cosmos 2499 01 Sep 05:34:23 05:42:54 72° 282° (WNW) 05:51:48 435.465 / 435.565
ITAMSAT 1 01 Sep 05:41:12 05:44:06 15° 301° (WNW) 05:46:48 435.822/435.867
PHONESAT 2.4 01 Sep 05:44:49 05:46:16 12° 152° (SSE) 05:47:48 2401.200-2431.200
CUBESAT XI-V 01 Sep 05:49:17 05:53:22 33° 69° (ENE) 05:57:32 437.345
STRAND 1 01 Sep 05:49:58 05:52:03 13° 58° (ENE) 05:54:22 437.568
O/OREOS (USA 219) 01 Sep 05:54:58 05:59:22 44° 252° (WSW) 06:03:42 437.305
AO-7 01 Sep 06:00:11 06:08:30 75° 291° (WNW) 06:16:43 29.400- 29.500
JAS-2 01 Sep 06:10:10 06:15:28 22° 304° (WNW) 06:20:11 435.910
HORYU 2 01 Sep 06:17:56 06:21:50 30° 293° (WNW) 06:25:41 437.375
CUTE-I 01 Sep 06:27:36 06:30:49 17° 88° (E) 06:34:15 437.470
YUBILEINY 01 Sep 06:28:38 06:31:39 12° 48° (NE) 06:35:16 435.215
VERMONT LUNAR 01 Sep 06:30:01 06:32:49 38° 182° (S) 06:35:36 437.305
PHONESAT 2.4 01 Sep 07:20:29 07:23:35 32° 167° (SSE) 07:26:41 2401.200-2431.200
Cubesat XI-IV 01 Sep 07:21:23 07:26:33 50° 99° (E) 07:31:44 437.490
STRAND 1 01 Sep 07:25:28 07:30:33 85° 78° (ENE) 07:35:42 437.568
CUBESAT XI-V 01 Sep 07:26:57 07:30:53 26° 267° (W) 07:34:43 437.345
Cosmos 2499 01 Sep 07:32:31 07:38:04 17° 306° (NW) 07:43:17 435.465 / 435.565
PRISM 01 Sep 07:40:50 07:44:56 90° 111° (ESE) 07:49:03 437.425
SO-50 01 Sep 07:43:42 07:44:31 10° 21° (NNE) 07:45:27 436.795
AO-7 01 Sep 07:54:27 08:00:06 20° 312° (NW) 08:05:27 29.400- 29.500
AIST 1 01 Sep 07:58:58 08:02:22 24° 89° (E) 08:05:52
CUTE-I 01 Sep 08:06:12 08:11:30 69° 288° (WNW) 08:16:47 437.470
VERMONT LUNAR 01 Sep 08:06:29 08:08:52 22° 198° (SSW) 08:11:14 437.305
YUBILEINY 01 Sep 08:22:27 08:31:07 56° 75° (ENE) 08:39:45 435.215
CANX-2 01 Sep 08:33:00 08:33:44 10° 86° (E) 08:34:43 2200.000
BRITE-PL 01 Sep 08:39:19 08:44:45 57° 99° (E) 08:50:21 437.365/2234.400
HO-68 01 Sep 08:42:18 08:47:35 22° 90° (E) 08:53:06 435.675
Cosmos 2504 01 Sep 08:42:36 08:44:22 11° 47° (NE) 08:46:43 435.465 / 435.565
SEEDS 01 Sep 08:52:41 08:54:25 13° 88° (E) 08:56:21 437.485
PHONESAT 2.4 01 Sep 08:57:54 09:01:09 42° 184° (S) 09:04:23 2401.200-2431.200
Cubesat XI-IV 01 Sep 09:02:07 09:06:23 25° 297° (WNW) 09:10:33 437.490
PCSat 01 Sep 09:04:00 09:05:44 12° 27° (NNE) 09:07:38 145.827
GOMX 1 01 Sep 09:05:50 09:11:15 61° 99° (E) 09:16:42 467.674
STRAND 1 01 Sep 09:08:26 09:10:33 12° 274° (W) 09:12:24 437.568
ISS 01 Sep 09:11:25 09:14:21 32° 140° (SE) 09:17:20 145.825
Cosmos 2491 01 Sep 09:12:08 09:20:25 52° 90° (E) 09:28:47 435.465 / 435.565
COMPASS 1 01 Sep 09:13:01 09:15:37 16° 90° (E) 09:18:20 437.405
DOVE 4 01 Sep 09:17:06 09:22:15 48° 97° (E) 09:27:22 437.250
SO-50 01 Sep 09:22:05 09:26:37 34° 44° (NE) 09:31:05 436.795
AAUSAT CUBESAT 2 01 Sep 09:22:38 09:25:23 18° 91° (E) 09:28:15 437.432
ANTELSAT 01 Sep 09:26:51 09:28:45 13° 60° (ENE) 09:30:52 437.575/2403.000
AIST 1 01 Sep 09:36:10 09:39:56 29° 287° (WNW) 09:43:40
AUBIESAT-1 01 Sep 09:37:25 09:40:38 19° 59° (ENE) 09:43:55 437.475
M-CUBED/EXP-1 PRIME 01 Sep 09:42:38 09:46:26 24° 61° (ENE) 09:50:14 437.505
CUBEBUG 2 01 Sep 09:46:38 09:49:50 19° 89° (E) 09:53:07 437.445
CUTE-I 01 Sep 09:49:15 09:50:43 11° 305° (NW) 09:51:55 437.470
FUNcube-1 01 Sep 09:51:15 09:52:12 11° 85° (E) 09:53:24 145.935
CUTE 1.7 + AOD 2 01 Sep 09:51:54 09:56:08 71° 101° (ESE) 10:00:19 437.475
UWE-3 01 Sep 09:52:44 09:55:31 16° 88° (E) 09:58:26 435.000/436.395/437.385
CINEMA 3 01 Sep 09:58:51 10:03:47 54° 99° (E) 10:08:34 145.822/145.860
QB50P2 01 Sep 10:05:23 10:05:29 10° 60° (ENE) 10:05:50 145.880/145.840
CUSAT 1 01 Sep 10:05:59 10:12:11 27° 64° (ENE) 10:19:00 437.405
CANX-2 01 Sep 10:06:02 10:10:16 73° 285° (WNW) 10:14:27 2200.000
UNISAT 6 01 Sep 10:15:04 10:19:16 34° 69° (ENE) 10:23:34 437.425
QB50P1 01 Sep 10:17:49 10:19:49 13° 62° (ENE) 10:22:01 145.935-145.965
BRITE-PL 01 Sep 10:18:35 10:22:55 24° 295° (WNW) 10:27:14 437.365/2234.400
YUBILEINY 01 Sep 10:19:52 10:27:38 35° 275° (W) 10:35:09 435.215
SEEDS 01 Sep 10:26:32 10:30:41 60° 286° (WNW) 10:34:47 437.485
HO-68 01 Sep 10:28:54 10:36:06 75° 289° (WNW) 10:43:16 435.675
Cosmos 2504 01 Sep 10:31:03 10:39:18 51° 73° (ENE) 10:47:08 435.465 / 435.565
Oscar 11 01 Sep 10:35:14 10:39:26 48° 99° (E) 10:43:36 145.826/435.025
PHONESAT 2.4 01 Sep 10:35:53 10:38:38 23° 200° (SSW) 10:41:21 2401.200-2431.200
DANDE 01 Sep 10:37:43 10:44:07 31° 67° (ENE) 10:51:27 436.750
TIGRISAT 01 Sep 10:42:53 10:47:31 62° 73° (ENE) 10:52:12 435.000
GOMX 1 01 Sep 10:44:49 10:48:57 22° 296° (WNW) 10:52:59 467.674
PCSat 01 Sep 10:45:30 10:50:41 44° 51° (NE) 10:55:52 145.827
COMPASS 1 01 Sep 10:47:35 10:51:34 45° 288° (WNW) 10:55:30 437.405
ISS 01 Sep 10:47:36 10:50:43 42° 338° (NNW) 10:53:51 145.825
DOVE 4 01 Sep 10:55:22 10:59:43 26° 295° (WNW) 11:03:56 437.250
AAUSAT CUBESAT 2 01 Sep 10:57:18 11:01:13 41° 288° (WNW) 11:05:05 437.432
ANTELSAT 01 Sep 11:00:11 11:04:53 87° 262° (W) 11:09:39 437.575/2403.000
SO-50 01 Sep 11:02:37 11:07:14 39° 243° (WSW) 11:11:40 436.795
Cosmos 2491 01 Sep 11:09:40 11:17:39 37° 292° (WNW) 11:25:32 435.465 / 435.565
AUBIESAT-1 01 Sep 11:10:15 11:14:57 61° 255° (WSW) 11:19:34 437.475
M-CUBED/EXP-1 PRIME 01 Sep 11:16:19 11:20:56 46° 257° (WSW) 11:25:29 437.505
DELFI C3 01 Sep 11:16:48 11:20:49 87° 284° (WNW) 11:24:48 145.870
POLYITAN 1 01 Sep 11:17:05 11:21:14 53° 73° (ENE) 11:25:28 437.675
DUCHIFAT 1 01 Sep 11:19:20 11:23:27 53° 72° (ENE) 11:27:38 145.980
POPSAT HIP 1 01 Sep 11:19:26 11:23:35 55° 73° (ENE) 11:27:47 437.405
ZACube-1 01 Sep 11:19:34 11:24:07 86° 284° (WNW) 11:28:31 437.345
VELOX 1 01 Sep 11:22:06 11:24:33 15° 89° (E) 11:27:12 145.980
CUBEBUG 2 01 Sep 11:22:18 11:26:52 50° 288° (WNW) 11:31:17 437.445
BUGSAT 1 01 Sep 11:24:31 11:28:16 37° 70° (ENE) 11:32:07 437.445
FUNcube-1 01 Sep 11:24:41 11:29:13 78° 285° (WNW) 11:33:35 145.935
UWE-3 01 Sep 11:27:56 11:32:28 54° 287° (WNW) 11:36:51 435.000/436.395/437.385
CUTE 1.7 + AOD 2 01 Sep 11:29:39 11:31:32 12° 298° (WNW) 11:33:13 437.475
QB50P2 01 Sep 11:36:27 11:40:43 88° 76° (ENE) 11:45:02 145.880/145.840
CINEMA 3 01 Sep 11:36:49 11:40:35 21° 296° (WNW) 11:44:10 145.822/145.860
NANOSAT C BR1 01 Sep 11:36:57 11:41:12 85° 76° (ENE) 11:45:30 145.865
CUSAT 1 01 Sep 11:47:42 11:55:28 78° 262° (W) 12:03:43 437.405
QB50P1 01 Sep 11:50:58 11:55:11 67° 259° (WSW) 11:59:28 145.935-145.965
50 SAT 01 Sep 11:51:16 11:54:48 33° 97° (E) 11:58:18 437.505
UNISAT 6 01 Sep 11:52:03 11:56:06 27° 267° (W) 12:00:06 437.425
HUMSAT D 01 Sep 11:59:19 12:03:36 80° 284° (WNW) 12:07:47 437.325/437.525
DX 1 01 Sep 12:04:17 12:08:39 62° 102° (ESE) 12:13:00 434.975-435.025
Oscar 11 01 Sep 12:12:19 12:15:17 18° 295° (WNW) 12:18:05 145.826/435.025
UKube-1 01 Sep 12:15:50 12:20:12 75° 103° (ESE) 12:24:32 .
HO-68 01 Sep 12:18:21 12:22:48 17° 309° (NW) 12:26:57 435.675
ESTCUBE 1 01 Sep 12:18:21 12:22:39 43° 98° (E) 12:26:58 437.505/2401.250
DANDE 01 Sep 12:20:14 12:27:43 67° 263° (W) 12:36:07 436.750
TIGRISAT 01 Sep 12:21:51 12:24:43 15° 272° (W) 12:27:25 435.000
SPROUT 01 Sep 12:22:12 12:23:59 13° 88° (E) 12:25:58 437.525
Cosmos 2504 01 Sep 12:23:40 12:31:19 38° 274° (W) 12:38:25 435.465 / 435.565
ISS 01 Sep 12:25:03 12:27:42 22° 358° (N) 12:30:21 145.825
CUBEBUG 1 01 Sep 12:27:35 12:31:49 44° 98° (E) 12:36:05 437.445
AISAT 01 Sep 12:29:01 12:33:32 76° 103° (ESE) 12:38:01 437.250
PCSat 01 Sep 12:29:13 12:33:59 31° 249° (WSW) 12:38:37 145.827
Oscar 19 01 Sep 12:41:23 12:45:17 23° 63° (ENE) 12:49:20 437.125/150
POLYITAN 1 01 Sep 12:54:58 12:57:32 15° 271° (W) 12:59:55 437.675
DUCHIFAT 1 01 Sep 12:57:07 12:59:38 15° 271° (W) 13:01:59 145.980
VELOX 1 01 Sep 12:57:07 13:01:32 58° 287° (WNW) 13:05:56 145.980
POPSAT HIP 1 01 Sep 12:57:25 12:59:51 14° 271° (W) 13:02:07 437.405
JAS-2 01 Sep 12:57:31 12:59:37 12° 47° (NE) 13:02:08 435.910
ZACube-1 01 Sep 12:58:43 12:59:45 11° 301° (WNW) 13:00:33 437.345
BUGSAT 1 01 Sep 13:00:51 13:03:54 19° 268° (W) 13:06:52 437.445
GONETS M04 01 Sep 13:10:04 13:17:21 29° 64° (ENE) 13:24:51
TISAT 1 01 Sep 13:21:51 13:25:38 30° 96° (E) 13:29:26 437.305
AO-7 01 Sep 13:23:45 13:25:45 11° 38° (NE) 13:28:10 29.400- 29.500
50 SAT 01 Sep 13:26:14 13:29:07 20° 293° (WNW) 13:31:54 437.505
Gurwin Techsat 1B 01 Sep 13:28:24 13:32:08 21° 62° (ENE) 13:36:03 435.225
CUSAT 1 01 Sep 13:32:12 13:37:12 18° 277° (W) 13:41:55 437.405
Cosmos 2499 01 Sep 13:34:50 13:36:35 11° 46° (NE) 13:38:56 435.465 / 435.565
DX 1 01 Sep 13:41:53 13:44:27 15° 298° (WNW) 13:46:53 434.975-435.025
ITAMSAT 1 01 Sep 13:41:58 13:45:46 22° 63° (ENE) 13:49:43 435.822/435.867
UKube-1 01 Sep 13:53:47 13:55:48 13° 299° (WNW) 13:57:37 .
ESTCUBE 1 01 Sep 13:55:51 13:59:16 21° 295° (WNW) 14:02:35 437.505/2401.250
SPROUT 01 Sep 13:56:15 14:00:34 65° 286° (WNW) 14:04:52 437.525
ITUPSAT 1 01 Sep 14:00:12 14:02:35 14° 88° (E) 14:05:10 437.325
ISS 01 Sep 14:01:45 14:04:45 32° 17° (NNE) 14:07:45 145.825
CUBEBUG 1 01 Sep 14:04:38 14:07:54 20° 295° (WNW) 14:11:04 437.445
DANDE 01 Sep 14:06:02 14:10:02 14° 278° (W) 14:13:40 436.750
AISAT 01 Sep 14:07:23 14:09:33 13° 299° (WNW) 14:11:33 437.250
Oscar 19 01 Sep 14:19:18 14:24:20 52° 260° (W) 14:29:25 437.125/150
BEESAT 01 Sep 14:31:38 14:35:45 29° 95° (E) 14:39:54 436.000
JAS-2 01 Sep 14:35:42 14:42:58 47° 67° (ENE) 14:50:24 435.910
RS-15 01 Sep 14:48:14 14:54:01 17° 99° (E) 15:00:42 29.354- 29.394
SWISSCUBE 01 Sep 14:57:20 15:02:02 56° 101° (E) 15:06:43 437.505
TISAT 1 01 Sep 14:57:42 15:01:19 26° 292° (WNW) 15:04:51 437.305
BEESAT 3 01 Sep 14:59:44 15:03:19 31° 116° (ESE) 15:06:57 437.485
GONETS M04 01 Sep 15:06:19 15:15:04 69° 266° (W) 15:23:48
Gurwin Techsat 1B 01 Sep 15:06:27 15:11:43 61° 259° (WSW) 15:17:00 435.225
AO-7 01 Sep 15:08:52 15:16:30 43° 60° (ENE) 15:24:13 29.400- 29.500
BEESAT 2 01 Sep 15:12:58 15:16:36 32° 117° (ESE) 15:20:18 435.950
ITAMSAT 1 01 Sep 15:19:52 15:24:56 54° 260° (W) 15:30:02 435.822/435.867
Cosmos 2499 01 Sep 15:24:13 15:32:37 50° 72° (ENE) 15:40:31 435.465 / 435.565
KKS-1 01 Sep 15:30:10 15:33:22 19° 91° (E) 15:36:41 437.445
ITUPSAT 1 01 Sep 15:36:17 15:41:02 68° 286° (WNW) 15:45:46 437.325
ISS 01 Sep 15:38:06 15:41:18 53° 216° (SW) 15:44:28 145.825
HORYU 2 01 Sep 15:41:01 15:45:03 34° 68° (ENE) 15:49:08 437.375
AIST 2 01 Sep 15:55:42 15:58:42 19° 113° (ESE) 16:01:48 435.215
BEESAT 01 Sep 16:09:20 16:13:36 33° 292° (WNW) 16:17:49 436.000
